| time (UTC) | temp C | wind direction | speed KPH | gust KPH | rain 1hr cm | rain 24hr cm | rain mn cm | humidity % | barometer mb |
| 20260506002739 | 20 | 303 | 0.0 | 0.0 | 0.00 | 0.03 | 0.03 | 94 | 1015.5 |
| 20260506002234 | 20 | 303 | 0.0 | 0.0 | 0.00 | 0.03 | 0.03 | 94 | 1015.6 |
| 20260506001733 | 20 | 303 | 0.0 | 0.0 | 0.00 | 0.03 | 0.03 | 94 | 1015.5 |
| 20260506001441 | 20 | 303 | 0.0 | 0.0 | 0.00 | 0.03 | 0.03 | 94 | 1015.5 |
| 20260506000712 | 20 | 303 | 0.0 | 0.0 | 0.00 | 0.03 | 0.03 | 93 | 1015.6 |
| 20260506000211 | 20 | 303 | 0.0 | 0.0 | 0.00 | 0.03 | 0.03 | 93 | 1015.5 |
| 20260505235942 | 20 | 303 | 0.0 | 0.0 | 0.00 | 0.03 | 0.03 | 93 | 1015.5 |
| 20260505235205 | 20 | 303 | 0.0 | 0.0 | 0.00 | 0.03 | 0.03 | 93 | 1015.5 |
| 20260505234701 | 20 | 303 | 0.0 | 0.0 | 0.00 | 0.03 | 0.03 | 94 | 1015.4 |
| 20260505234131 | 20 | 303 | 0.0 | 0.0 | 0.00 | 0.03 | 0.03 | 93 | 1015.5 |
| 20260505233607 | 21 | 303 | 0.0 | 0.0 | 0.00 | 0.03 | 0.03 | 92 | 1015.4 |
| 20260505233102 | 21 | 303 | 0.0 | 0.0 | 0.00 | 0.03 | 0.03 | 92 | 1015.4 |
| 20260505232830 | 21 | 303 | 0.0 | 0.0 | 0.00 | 0.03 | 0.03 | 93 | 1015.3 |
| 20260505232049 | 21 | 303 | 0.0 | 0.0 | 0.00 | 0.03 | 0.03 | 93 | 1015.2 |
| 20260505231525 | 21 | 303 | 0.0 | 0.0 | 0.00 | 0.03 | 0.03 | 93 | 1015.2 |
| 20260505231005 | 21 | 303 | 0.0 | 0.0 | 0.00 | 0.03 | 0.03 | 93 | 1015.2 |
| 20260505230504 | 21 | 303 | 0.0 | 0.0 | 0.00 | 0.03 | 0.03 | 94 | 1015.1 |
| 20260505230005 | 21 | 303 | 0.0 | 0.0 | 0.00 | 0.03 | 0.03 | 93 | 1015.2 |
| 20260505225501 | 21 | 303 | 0.0 | 0.0 | 0.00 | 0.03 | 0.03 | 93 | 1015.1 |
| 20260505224950 | 21 | 303 | 0.0 | 0.0 | 0.00 | 0.03 | 0.03 | 93 | 1015.3 |
| 20260505224422 | 21 | 303 | 0.0 | 0.0 | 0.00 | 0.03 | 0.03 | 93 | 1015.3 |
| 20260505223857 | 21 | 303 | 0.0 | 0.0 | 0.00 | 0.03 | 0.03 | 93 | 1015.3 |
| 20260505223355 | 22 | 303 | 0.0 | 0.0 | 0.00 | 0.03 | 0.03 | 92 | 1015.3 |
| 20260505222825 | 22 | 303 | 0.0 | 0.0 | 0.00 | 0.03 | 0.03 | 91 | 1015.1 |
| 20260505222324 | 22 | 303 | 0.0 | 0.0 | 0.00 | 0.03 | 0.03 | 91 | 1015.3 |
| 20260505222043 | 22 | 303 | 0.0 | 0.0 | 0.00 | 0.03 | 0.03 | 91 | 1015.3 |
| 20260505221544 | 22 | 303 | 0.0 | 0.0 | 0.00 | 0.05 | 0.03 | 91 | 1015.3 |
| 20260505220808 | 22 | 303 | 0.0 | 0.0 | 0.00 | 0.05 | 0.03 | 91 | 1015.3 |
| 20260505220305 | 22 | 303 | 0.0 | 0.0 | 0.00 | 0.05 | 0.03 | 91 | 1015.2 |
| 20260505220029 | 22 | 303 | 0.0 | 0.0 | 0.00 | 0.05 | 0.03 | 91 | 1015.3 |
| 20260505215256 | 22 | 303 | 0.0 | 0.0 | 0.00 | 0.05 | 0.03 | 90 | 1015.3 |
| 20260505214730 | 23 | 303 | 0.0 | 0.0 | 0.00 | 0.05 | 0.03 | 89 | 1015.2 |
| 20260505214201 | 23 | 303 | 0.0 | 0.0 | 0.00 | 0.05 | 0.03 | 90 | 1015.1 |
| 20260505213903 | 23 | 303 | 0.0 | 0.0 | 0.00 | 0.05 | 0.03 | 89 | 1015.1 |
| 20260505213336 | 23 | 303 | 0.0 | 0.0 | 0.00 | 0.05 | 0.03 | 88 | 1015.1 |
| 20260505212559 | 23 | 303 | 0.0 | 0.0 | 0.00 | 0.05 | 0.03 | 88 | 1015.0 |
| 20260505212052 | 24 | 303 | 0.0 | 0.0 | 0.00 | 0.05 | 0.03 | 87 | 1015.0 |
| 20260505211528 | 24 | 303 | 0.0 | 0.0 | 0.00 | 0.05 | 0.03 | 85 | 1014.9 |
| 20260505211022 | 25 | 303 | 0.0 | 0.0 | 0.00 | 0.05 | 0.03 | 85 | 1014.9 |
| 20260505210501 | 25 | 303 | 0.0 | 0.0 | 0.00 | 0.05 | 0.03 | 84 | 1014.9 |
| 20260505210002 | 25 | 303 | 0.0 | 0.0 | 0.00 | 0.05 | 0.03 | 83 | 1014.9 |
| 20260505205503 | 25 | 303 | 0.0 | 0.0 | 0.00 | 0.05 | 0.03 | 82 | 1014.8 |
| 20260505205009 | 26 | 303 | 1.6 | 3.2 | 0.00 | 0.05 | 0.03 | 81 | 1014.7 |
| 20260505205001 | 26 | 303 | 0.0 | 1.6 | 0.00 | 0.05 | 0.03 | 82 | 1014.8 |
| 20260505203930 | 26 | 303 | 1.6 | 4.8 | 0.00 | 0.05 | 0.03 | 80 | 1014.6 |
| 20260505203400 | 27 | 303 | 1.6 | 4.8 | 0.00 | 0.05 | 0.03 | 78 | 1014.7 |
| 20260505202834 | 27 | 288 | 0.0 | 3.2 | 0.00 | 0.05 | 0.03 | 77 | 1014.7 |
| 20260505202318 | 28 | 288 | 0.0 | 3.2 | 0.00 | 0.05 | 0.03 | 75 | 1014.6 |
| 20260505201818 | 28 | 288 | 1.6 | 4.8 | 0.00 | 0.05 | 0.03 | 73 | 1014.7 |
| 20260505201319 | 29 | 288 | 1.6 | 4.8 | 0.00 | 0.05 | 0.03 | 72 | 1014.7 |
| 20260505200804 | 30 | 271 | 1.6 | 3.2 | 0.00 | 0.05 | 0.03 | 70 | 1014.7 |
| 20260505200304 | 31 | 17 | 0.0 | 1.6 | 0.00 | 0.05 | 0.03 | 66 | 1014.8 |
| 20260505195806 | 32 | 17 | 0.0 | 0.0 | 0.00 | 0.05 | 0.03 | 65 | 1014.7 |
| 20260505195740 | 32 | 17 | 0.0 | 0.0 | 0.00 | 0.05 | 0.03 | 63 | 1014.7 |
| 20260505194711 | 32 | 17 | 0.0 | 0.0 | 0.00 | 0.05 | 0.03 | 63 | 1014.7 |
| 20260505194202 | 32 | 17 | 0.0 | 3.2 | 0.00 | 0.05 | 0.03 | 60 | 1014.6 |
| 20260505193658 | 32 | 17 | 0.0 | 3.2 | 0.00 | 0.05 | 0.03 | 62 | 1014.6 |
| 20260505193154 | 32 | 332 | 0.0 | 6.4 | 0.00 | 0.05 | 0.03 | 63 | 1014.6 |
| 20260505192650 | 32 | 86 | 0.0 | 6.4 | 0.00 | 0.05 | 0.03 | 60 | 1014.6 |
| 20260505192128 | 32 | 56 | 0.0 | 0.0 | 0.00 | 0.05 | 0.03 | 62 | 1014.6 |
| 20260505191628 | 32 | 56 | 0.0 | 0.0 | 0.00 | 0.05 | 0.03 | 63 | 1014.7 |
| 20260505191125 | 32 | 26 | 0.0 | 1.6 | 0.00 | 0.05 | 0.03 | 60 | 1014.6 |
| 20260505190826 | 32 | 337 | 0.0 | 1.6 | 0.00 | 0.05 | 0.03 | 63 | 1014.7 |
| 20260505190054 | 32 | 337 | 0.0 | 4.8 | 0.00 | 0.05 | 0.03 | 62 | 1014.6 |
| 20260505185552 | 32 | 69 | 1.6 | 6.4 | 0.00 | 0.05 | 0.03 | 61 | 1014.6 |
| 20260505185054 | 32 | 52 | 1.6 | 6.4 | 0.00 | 0.05 | 0.03 | 61 | 1014.6 |
| 20260505184535 | 32 | 114 | 1.6 | 4.8 | 0.00 | 0.05 | 0.03 | 60 | 1014.6 |
| 20260505184036 | 32 | 51 | 1.6 | 4.8 | 0.00 | 0.05 | 0.03 | 61 | 1014.7 |
| 20260505183509 | 32 | 308 | 1.6 | 11.3 | 0.00 | 0.05 | 0.03 | 61 | 1014.7 |
| 20260505183213 | 32 | 234 | 1.6 | 11.3 | 0.00 | 0.05 | 0.03 | 60 | 1014.7 |
| 20260505182419 | 32 | 301 | 0.0 | 9.7 | 0.00 | 0.05 | 0.03 | 60 | 1014.6 |
| 20260505181908 | 32 | 7 | 1.6 | 8.0 | 0.00 | 0.05 | 0.03 | 62 | 1014.7 |
| 20260505181401 | 32 | 327 | 3.2 | 8.0 | 0.00 | 0.05 | 0.03 | 62 | 1014.7 |
| 20260505180856 | 32 | 348 | 1.6 | 8.0 | 0.00 | 0.05 | 0.03 | 64 | 1014.7 |
| 20260505180602 | 32 | 310 | 1.6 | 8.0 | 0.00 | 0.05 | 0.03 | 61 | 1014.7 |
| 20260505180055 | 32 | 322 | 1.6 | 8.0 | 0.00 | 0.08 | 0.03 | 62 | 1014.7 |
| 20260505175312 | 32 | 265 | 1.6 | 12.9 | 0.00 | 0.08 | 0.03 | 63 | 1014.7 |
| 20260505174812 | 32 | 347 | 3.2 | 12.9 | 0.00 | 0.08 | 0.03 | 63 | 1014.8 |
| 20260505174312 | 32 | 320 | 3.2 | 11.3 | 0.00 | 0.08 | 0.03 | 63 | 1014.7 |
| 20260505173747 | 31 | 27 | 3.2 | 11.3 | 0.00 | 0.08 | 0.03 | 62 | 1014.8 |
| 20260505173219 | 31 | 328 | 3.2 | 11.3 | 0.00 | 0.08 | 0.03 | 62 | 1014.8 |
| 20260505172713 | 31 | 335 | 3.2 | 9.7 | 0.00 | 0.08 | 0.03 | 63 | 1014.9 |
| 20260505172211 | 31 | 25 | 3.2 | 11.3 | 0.00 | 0.08 | 0.03 | 65 | 1014.8 |
| 20260505171642 | 31 | 315 | 4.8 | 11.3 | 0.00 | 0.08 | 0.03 | 63 | 1014.9 |
| 20260505171140 | 31 | 264 | 4.8 | 9.7 | 0.00 | 0.08 | 0.03 | 64 | 1015.1 |
| 20260505170630 | 31 | 287 | 4.8 | 12.9 | 0.00 | 0.08 | 0.03 | 65 | 1015.2 |
| 20260505170129 | 31 | 299 | 4.8 | 12.9 | 0.00 | 0.08 | 0.03 | 64 | 1015.2 |
| 20260505165616 | 31 | 42 | 3.2 | 11.3 | 0.00 | 0.08 | 0.03 | 64 | 1015.1 |
| 20260505165118 | 31 | 29 | 3.2 | 11.3 | 0.00 | 0.08 | 0.03 | 64 | 1015.2 |
| 20260505164614 | 31 | 357 | 3.2 | 11.3 | 0.00 | 0.08 | 0.03 | 64 | 1015.3 |
| 20260505164112 | 31 | 289 | 3.2 | 11.3 | 0.00 | 0.08 | 0.03 | 65 | 1015.4 |
| 20260505163559 | 30 | 29 | 6.4 | 12.9 | 0.00 | 0.08 | 0.03 | 67 | 1015.4 |
| 20260505163056 | 30 | 22 | 6.4 | 14.5 | 0.00 | 0.08 | 0.03 | 66 | 1015.5 |
| 20260505162553 | 30 | 316 | 6.4 | 14.5 | 0.00 | 0.08 | 0.03 | 65 | 1015.6 |
| 20260505162310 | 30 | 299 | 8.0 | 16.1 | 0.00 | 0.08 | 0.03 | 66 | 1015.7 |
| 20260505161812 | 30 | 18 | 6.4 | 16.1 | 0.00 | 0.08 | 0.03 | 67 | 1015.8 |
| 20260505161040 | 30 | 341 | 6.4 | 14.5 | 0.00 | 0.08 | 0.03 | 66 | 1015.8 |
| 20260505160539 | 30 | 299 | 6.4 | 14.5 | 0.00 | 0.08 | 0.03 | 66 | 1015.9 |
| 20260505152938 | 29 | 293 | 4.8 | 14.5 | 0.00 | 0.08 | 0.03 | 69 | 1016.4 |
| 20260505152428 | 29 | 343 | 6.4 | 14.5 | 0.00 | 0.08 | 0.03 | 70 | 1016.4 |
| 20260505151904 | 29 | 349 | 4.8 | 14.5 | 0.00 | 0.08 | 0.03 | 70 | 1016.5 |
| 20260505151402 | 28 | 301 | 4.8 | 14.5 | 0.00 | 0.08 | 0.03 | 70 | 1016.5 |
| 20260505150842 | 28 | 348 | 8.0 | 17.7 | 0.00 | 0.08 | 0.03 | 70 | 1016.6 |
| 20260505150337 | 28 | 286 | 8.0 | 16.1 | 0.00 | 0.08 | 0.03 | 69 | 1016.6 |
| 20260505140626 | 27 | 316 | 4.8 | 11.3 | 0.00 | 0.08 | 0.03 | 72 | 1017.3 |
| 20260505140128 | 27 | 305 | 4.8 | 14.5 | 0.00 | 0.08 | 0.03 | 74 | 1017.2 |
| 20260505124825 | 25 | 264 | 1.6 | 9.7 | 0.00 | 0.08 | 0.03 | 82 | 1017.1 |
| 20260505124324 | 25 | 289 | 1.6 | 11.3 | 0.00 | 0.08 | 0.03 | 81 | 1017.1 |
| 20260505123821 | 24 | 353 | 1.6 | 11.3 | 0.00 | 0.08 | 0.03 | 83 | 1016.9 |
| 20260505123256 | 24 | 16 | 1.6 | 6.4 | 0.00 | 0.08 | 0.03 | 83 | 1016.9 |
| 20260505122734 | 23 | 305 | 3.2 | 6.4 | 0.00 | 0.08 | 0.03 | 83 | 1016.9 |
| 20260505122500 | 23 | 319 | 3.2 | 9.7 | 0.00 | 0.08 | 0.03 | 83 | 1017.0 |
| 20260505121724 | 23 | 297 | 4.8 | 9.7 | 0.00 | 0.08 | 0.03 | 83 | 1016.8 |
| 20260505121448 | 23 | 306 | 3.2 | 9.7 | 0.00 | 0.08 | 0.03 | 83 | 1016.7 |
| 20260505120716 | 23 | 302 | 1.6 | 8.0 | 0.00 | 0.08 | 0.03 | 84 | 1016.8 |
| 20260505120147 | 23 | 336 | 1.6 | 8.0 | 0.00 | 0.08 | 0.03 | 85 | 1016.7 |
| 20260505115647 | 23 | 120 | 0.0 | 3.2 | 0.00 | 0.08 | 0.03 | 85 | 1016.7 |
| 20260505115139 | 22 | 148 | 1.6 | 8.0 | 0.00 | 0.08 | 0.03 | 85 | 1016.6 |
| 20260505115131 | 23 | 120 | 1.6 | 8.0 | 0.00 | 0.08 | 0.03 | 86 | 1016.7 |
| 20260505114129 | 22 | 127 | 0.0 | 1.6 | 0.00 | 0.08 | 0.03 | 87 | 1016.5 |
| 20260505113637 | 22 | 40 | 0.0 | 0.0 | 0.00 | 0.08 | 0.03 | 89 | 1016.4 |
| 20260505113629 | 22 | 55 | 0.0 | 1.6 | 0.00 | 0.08 | 0.03 | 88 | 1016.6 |
| 20260505112627 | 21 | 45 | 0.0 | 0.0 | 0.00 | 0.08 | 0.03 | 90 | 1016.4 |
| 20260505112124 | 21 | 126 | 0.0 | 0.0 | 0.00 | 0.08 | 0.03 | 90 | 1016.4 |
| 20260505111852 | 21 | 126 | 0.0 | 0.0 | 0.00 | 0.08 | 0.03 | 92 | 1016.3 |
| 20260505111115 | 21 | 91 | 0.0 | 0.0 | 0.00 | 0.08 | 0.03 | 92 | 1016.3 |
| 20260505110617 | 20 | 91 | 0.0 | 1.6 | 0.00 | 0.08 | 0.03 | 92 | 1016.2 |
| 20260505110111 | 20 | 103 | 1.6 | 4.8 | 0.00 | 0.08 | 0.03 | 92 | 1016.0 |
| 20260505101524 | 19 | 265 | 4.8 | 11.3 | 0.00 | 0.08 | 0.03 | 95 | 1015.7 |
| 20260505101023 | 18 | 274 | 1.6 | 11.3 | 0.00 | 0.08 | 0.03 | 95 | 1015.5 |
| 20260505100523 | 18 | 297 | 0.0 | 4.8 | 0.00 | 0.08 | 0.03 | 94 | 1015.4 |
| 20260505100516 | 18 | 79 | 0.0 | 0.0 | 0.00 | 0.08 | 0.03 | 93 | 1015.4 |
| 20260505100246 | 18 | 79 | 0.0 | 0.0 | 0.00 | 0.08 | 0.03 | 93 | 1015.4 |
| 20260505095742 | 18 | 79 | 0.0 | 6.4 | 0.00 | 0.08 | 0.03 | 94 | 1015.3 |
| 20260505095008 | 18 | 79 | 1.6 | 6.4 | 0.00 | 0.08 | 0.03 | 94 | 1015.3 |
| 20260505094507 | 18 | 124 | 1.6 | 4.8 | 0.00 | 0.08 | 0.03 | 94 | 1015.2 |
| 20260505093938 | 19 | 272 | 1.6 | 4.8 | 0.00 | 0.08 | 0.03 | 93 | 1015.1 |
| 20260505093415 | 19 | 171 | 0.0 | 3.2 | 0.00 | 0.08 | 0.03 | 93 | 1015.1 |
| 20260505092915 | 19 | 177 | 0.0 | 3.2 | 0.00 | 0.08 | 0.03 | 93 | 1015.1 |
| 20260505092359 | 19 | 208 | 0.0 | 3.2 | 0.00 | 0.08 | 0.03 | 93 | 1015.0 |
| 20260505091859 | 19 | 267 | 0.0 | 3.2 | 0.00 | 0.08 | 0.03 | 92 | 1014.9 |
| 20260505091614 | 19 | 310 | 1.6 | 4.8 | 0.00 | 0.08 | 0.03 | 92 | 1015.0 |
| 20260505091104 | 20 | 310 | 1.6 | 4.8 | 0.00 | 0.08 | 0.03 | 91 | 1014.9 |
| 20260505090334 | 20 | 42 | 0.0 | 1.6 | 0.00 | 0.08 | 0.03 | 91 | 1014.9 |
| 20260505085830 | 20 | 42 | 0.0 | 1.6 | 0.00 | 0.08 | 0.03 | 90 | 1015.0 |
| 20260505085320 | 20 | 42 | 0.0 | 4.8 | 0.00 | 0.08 | 0.03 | 90 | 1014.8 |
| 20260505084810 | 20 | 42 | 0.0 | 4.8 | 0.00 | 0.08 | 0.03 | 90 | 1014.8 |
| 20260505084254 | 20 | 42 | 0.0 | 4.8 | 0.00 | 0.08 | 0.03 | 90 | 1014.9 |
| 20260505083753 | 20 | 177 | 1.6 | 4.8 | 0.00 | 0.08 | 0.03 | 90 | 1014.8 |
| 20260505083253 | 20 | 86 | 1.6 | 8.0 | 0.00 | 0.08 | 0.03 | 89 | 1015.0 |
| 20260505082752 | 20 | 234 | 1.6 | 8.0 | 0.00 | 0.08 | 0.03 | 89 | 1014.8 |
| 20260505082738 | 21 | 316 | 3.2 | 6.4 | 0.03 | 0.08 | 0.03 | 89 | 1014.7 |
| 20260505081734 | 21 | 278 | 4.8 | 6.4 | 0.03 | 0.08 | 0.03 | 88 | 1014.6 |
| 20260505081223 | 21 | 239 | 3.2 | 6.4 | 0.03 | 0.08 | 0.03 | 88 | 1014.6 |
| 20260505080716 | 21 | 235 | 3.2 | 6.4 | 0.03 | 0.08 | 0.03 | 87 | 1014.7 |
| 20260505080152 | 21 | 256 | 3.2 | 4.8 | 0.03 | 0.08 | 0.03 | 87 | 1014.6 |
| 20260505075923 | 21 | 234 | 3.2 | 9.7 | 0.03 | 0.08 | 0.03 | 87 | 1014.5 |
| 20260505075147 | 21 | 263 | 4.8 | 9.7 | 0.03 | 0.08 | 0.03 | 86 | 1014.5 |
| 20260505074634 | 22 | 284 | 3.2 | 6.4 | 0.03 | 0.08 | 0.03 | 86 | 1014.4 |
| 20260505074110 | 22 | 253 | 3.2 | 9.7 | 0.03 | 0.08 | 0.03 | 86 | 1014.4 |
| 20260505073840 | 22 | 187 | 3.2 | 9.7 | 0.03 | 0.08 | 0.03 | 85 | 1014.4 |
| 20260505073108 | 22 | 207 | 1.6 | 8.0 | 0.03 | 0.08 | 0.03 | 84 | 1014.4 |
| 20260505072607 | 22 | 234 | 3.2 | 12.9 | 0.03 | 0.08 | 0.03 | 86 | 1014.5 |
| 20260505072107 | 22 | 147 | 4.8 | 12.9 | 0.00 | 0.05 | 0.00 | 84 | 1014.4 |
| 20260505071831 | 22 | 312 | 4.8 | 11.3 | 0.00 | 0.05 | 0.00 | 85 | 1014.5 |
| 20260505071058 | 22 | 311 | 3.2 | 11.3 | 0.00 | 0.05 | 0.00 | 85 | 1014.4 |
| 20260505070559 | 21 | 265 | 3.2 | 11.3 | 0.00 | 0.05 | 0.00 | 85 | 1014.4 |
| 20260505070058 | 21 | 312 | 3.2 | 12.9 | 0.00 | 0.05 | 0.00 | 85 | 1014.4 |
| 20260505065539 | 21 | 26 | 3.2 | 12.9 | 0.00 | 0.05 | 0.00 | 85 | 1014.3 |
| 20260505065241 | 22 | 111 | 3.2 | 16.1 | 0.00 | 0.05 | 0.00 | 85 | 1014.4 |
| 20260505064739 | 22 | 103 | 1.6 | 16.1 | 0.00 | 0.05 | 0.00 | 84 | 1014.5 |
| 20260505064007 | 22 | 338 | 3.2 | 20.9 | 0.00 | 0.05 | 0.00 | 85 | 1014.5 |
| 20260505063736 | 22 | 315 | 6.4 | 20.9 | 0.00 | 0.05 | 0.00 | 85 | 1014.5 |
| 20260505062942 | 22 | 240 | 4.8 | 14.5 | 0.00 | 0.05 | 0.00 | 84 | 1014.7 |
| 20260505062440 | 22 | 315 | 3.2 | 4.8 | 0.00 | 0.05 | 0.00 | 85 | 1014.5 |
| 20260505061917 | 22 | 214 | 3.2 | 9.7 | 0.00 | 0.05 | 0.00 | 85 | 1014.7 |
| 20260505061416 | 22 | 253 | 1.6 | 9.7 | 0.00 | 0.05 | 0.00 | 84 | 1014.6 |
| 20260505060901 | 22 | 358 | 1.6 | 11.3 | 0.00 | 0.05 | 0.00 | 84 | 1014.7 |
| 20260505060632 | 22 | 320 | 3.2 | 11.3 | 0.00 | 0.05 | 0.00 | 83 | 1014.6 |
| 20260505055859 | 22 | 200 | 4.8 | 14.5 | 0.00 | 0.05 | 0.00 | 83 | 1014.7 |
| 20260505055630 | 22 | 277 | 4.8 | 14.5 | 0.00 | 0.05 | 0.00 | 83 | 1014.6 |
| 20260505054847 | 22 | 318 | 3.2 | 11.3 | 0.00 | 0.05 | 0.00 | 83 | 1014.6 |
| 20260505054319 | 22 | 345 | 4.8 | 11.3 | 0.00 | 0.05 | 0.00 | 83 | 1014.8 |
| 20260505053815 | 22 | 281 | 4.8 | 17.7 | 0.00 | 0.05 | 0.00 | 83 | 1014.8 |
| 20260505053315 | 22 | 287 | 4.8 | 17.7 | 0.00 | 0.05 | 0.00 | 83 | 1014.8 |
| 20260505052816 | 22 | 332 | 3.2 | 14.5 | 0.00 | 0.05 | 0.00 | 84 | 1014.8 |
| 20260505052312 | 22 | 329 | 3.2 | 11.3 | 0.00 | 0.05 | 0.00 | 84 | 1014.8 |
| 20260505051746 | 22 | 231 | 3.2 | 9.7 | 0.00 | 0.05 | 0.00 | 85 | 1014.9 |
| 20260505051253 | 22 | 284 | 1.6 | 8.0 | 0.00 | 0.05 | 0.00 | 85 | 1014.8 |
| 20260505051245 | 22 | 220 | 3.2 | 9.7 | 0.00 | 0.05 | 0.00 | 85 | 1014.8 |
| 20260505050244 | 22 | 290 | 1.6 | 4.8 | 0.00 | 0.05 | 0.00 | 85 | 1014.9 |
| 20260505041056 | 21 | 237 | 1.6 | 6.4 | 0.00 | 0.05 | 0.00 | 91 | 1015.1 |
| 20260505040539 | 20 | 141 | 1.6 | 11.3 | 0.00 | 0.05 | 0.00 | 92 | 1015.0 |
| 20260505040025 | 20 | 244 | 1.6 | 11.3 | 0.00 | 0.05 | 0.00 | 93 | 1015.1 |
| 20260505035525 | 20 | 115 | 1.6 | 8.0 | 0.00 | 0.05 | 0.00 | 93 | 1015.1 |
| 20260505035400 | 20 | 204 | 1.6 | 6.4 | 0.00 | 0.05 | 0.00 | 95 | 1015.1 |
| 20260505035252 | 20 | 159 | 1.6 | 8.0 | 0.00 | 0.05 | 0.00 | 94 | 1015.0 |
| 20260505034249 | 20 | 171 | 1.6 | 6.4 | 0.00 | 0.05 | 0.00 | 95 | 1015.2 |
| 20260505033746 | 20 | 209 | 1.6 | 6.4 | 0.00 | 0.05 | 0.00 | 95 | 1015.1 |
| 20260505032948 | 19 | 172 | 1.6 | 6.4 | 0.00 | 0.05 | 0.00 | 96 | 1015.0 |
| 20260505032449 | 19 | 57 | 0.0 | 6.4 | 0.00 | 0.05 | 0.00 | 96 | 1015.0 |
| 20260505031949 | 19 | 241 | 0.0 | 4.8 | 0.00 | 0.05 | 0.00 | 96 | 1015.1 |
| 20260505031438 | 19 | 45 | 0.0 | 4.8 | 0.00 | 0.05 | 0.00 | 97 | 1015.0 |
| 20260505030913 | 19 | 10 | 1.6 | 8.0 | 0.00 | 0.05 | 0.00 | 97 | 1015.1 |
| 20260505030402 | 19 | 218 | 3.2 | 8.0 | 0.00 | 0.05 | 0.00 | 97 | 1015.0 |
| 20260505030335 | 19 | 224 | 1.6 | 6.4 | 0.00 | 0.05 | 0.05 | 98 | 1015.1 |
| 20260505025605 | 19 | 220 | 3.2 | 12.9 | 0.00 | 0.05 | 0.05 | 98 | 1015.0 |
| 20260505025051 | 19 | 208 | 1.6 | 12.9 | 0.00 | 0.05 | 0.05 | 98 | 1015.0 |
| 20260505024310 | 18 | 244 | 0.0 | 3.2 | 0.00 | 0.05 | 0.05 | 97 | 1015.1 |
| 20260505023753 | 18 | 258 | 0.0 | 3.2 | 0.00 | 0.05 | 0.05 | 97 | 1015.0 |
| 20260505023253 | 18 | 85 | 0.0 | 4.8 | 0.00 | 0.05 | 0.05 | 97 | 1015.1 |
| 20260505022753 | 18 | 297 | 0.0 | 4.8 | 0.00 | 0.05 | 0.05 | 97 | 1015.1 |
| 20260505022253 | 18 | 145 | 1.6 | 6.4 | 0.00 | 0.05 | 0.05 | 97 | 1015.1 |
| 20260505021736 | 18 | 347 | 0.0 | 9.7 | 0.00 | 0.05 | 0.05 | 97 | 1015.0 |
| 20260505021729 | 18 | 29 | 1.6 | 9.7 | 0.00 | 0.05 | 0.05 | 97 | 1015.1 |
| 20260505020715 | 18 | 320 | 0.0 | 3.2 | 0.00 | 0.05 | 0.05 | 97 | 1015.1 |
| 20260505020211 | 18 | 320 | 0.0 | 4.8 | 0.00 | 0.05 | 0.05 | 97 | 1015.1 |
| 20260505015706 | 18 | 282 | 0.0 | 4.8 | 0.00 | 0.05 | 0.05 | 97 | 1015.0 |
| 20260505015208 | 19 | 261 | 1.6 | 8.0 | 0.00 | 0.05 | 0.05 | 98 | 1014.9 |
| 20260505014651 | 19 | 121 | 1.6 | 8.0 | 0.00 | 0.05 | 0.05 | 98 | 1015.0 |
| 20260505014149 | 19 | 4 | 1.6 | 8.0 | 0.00 | 0.05 | 0.05 | 98 | 1014.9 |
| 20260505013646 | 19 | 4 | 3.2 | 8.0 | 0.00 | 0.05 | 0.05 | 98 | 1015.0 |
| 20260505013136 | 19 | 182 | 1.6 | 8.0 | 0.00 | 0.05 | 0.05 | 98 | 1014.9 |
| 20260505012906 | 19 | 158 | 0.0 | 4.8 | 0.00 | 0.05 | 0.05 | 98 | 1014.9 |
| 20260505012135 | 19 | 34 | 1.6 | 3.2 | 0.00 | 0.05 | 0.05 | 98 | 1015.0 |
| 20260505011619 | 18 | 177 | 1.6 | 8.0 | 0.00 | 0.05 | 0.05 | 98 | 1015.0 |
| 20260505011101 | 18 | 212 | 0.0 | 3.2 | 0.00 | 0.05 | 0.05 | 98 | 1014.8 |
| 20260505011049 | 18 | 244 | 0.0 | 6.4 | 0.00 | 0.05 | 0.05 | 98 | 1014.9 |
| 20260505010040 | 18 | 177 | 0.0 | 3.2 | 0.00 | 0.05 | 0.05 | 98 | 1014.9 |
| 20260505005539 | 18 | 187 | 0.0 | 3.2 | 0.00 | 0.05 | 0.05 | 97 | 1014.7 |
| 20260505005017 | 18 | 72 | 1.6 | 6.4 | 0.00 | 0.05 | 0.05 | 97 | 1014.7 |
| 20260505004515 | 18 | 97 | 1.6 | 6.4 | 0.00 | 0.05 | 0.05 | 98 | 1014.7 |
| 20260505004014 | 18 | 187 | 1.6 | 6.4 | 0.00 | 0.05 | 0.05 | 97 | 1014.6 |
| 20260505003512 | 18 | 258 | 0.0 | 3.2 | 0.00 | 0.05 | 0.05 | 97 | 1014.6 |